Location: WHS+Essen
(51.3947°N, 6.9794°E)
Time: 22:45:03
(UTC+02:00)

ISS - Pass Details

Date: 21 May 2019
Orbit: 408 x 418 km, 51.6° (Epoch: 19 June)

Event Time Altitude Azimuth Distance (km) Brightness Sun altitude
Rises 23:23:54 0° 257° (WSW) 2,354 0.3 -13.3°
Reaches altitude 10° 23:25:59 10° 257° (WSW) 1,494 -0.8 -13.5°
Maximum altitude 23:29:20 84° 171° (S) 426 -3.9 -13.7°
Drops below altitude 10° 23:32:43 10° 81° (E) 1,503 -1.1 -14.0°
Enters shadow 23:35:06 -1° 81° (E) 2,488 0.0 -14.1°
